{"data":{"norad_id":69392,"intl_designator":"2026-124L","name":"QIANFAN-175","alt_names":[],"object_type":"PAYLOAD","status":"ACTIVE","operator":null,"country":"PRC","launch_date":"2026-06-04","launch_site_code":"TAISC","launch_vehicle":null,"mission":null,"orbit_class":"UNKNOWN","rcs_meters":null,"size_class":null,"mass_kg":null,"dimensions":null,"purposes":[],"wikipedia_slug":null,"has_3d_model":false,"image_url":null,"decayed_at":null,"tle_current":{"epoch":"2026-09-20T04:57:11.399616Z","epoch_age_seconds":60385,"freshness":"FRESH","line1":"1 69392U 26124L   26263.20638194  .00000112  00000+0  15469-3 0  9997","line2":"2 69392  89.0094 352.0223 0001819 102.6676 257.4678 13.51020629 14895","mean_motion":13.51020629,"eccentricity":0.0001819,"inclination_deg":89.0094,"raan_deg":352.0223,"arg_perigee_deg":102.6676,"mean_anomaly_deg":257.4678,"bstar":0.00015469,"rev_number":1489,"period_min":106.58608529656,"perigee_km":1067.1512371221,"apogee_km":1069.860325766,"semimajor_km":7446.642781444,"source":"CELESTRAK","updated_at":"2026-09-20T09:00:24.861188Z"}}}